{"data":{"norad_id":65665,"intl_designator":"2025-211P","name":"STARLINK-35115","alt_names":[],"object_type":"PAYLOAD","status":"ACTIVE","operator":null,"country":"US","launch_date":"2025-09-19","launch_site_code":"AFWTR","launch_vehicle":null,"mission":null,"orbit_class":"UNKNOWN","rcs_meters":null,"size_class":null,"mass_kg":null,"dimensions":null,"purposes":["comms"],"wikipedia_slug":null,"has_3d_model":false,"image_url":null,"decayed_at":null,"tle_current":{"epoch":"2026-05-25T02:47:14.445888Z","epoch_age_seconds":58849,"freshness":"FRESH","line1":"1 65665U 25211P   26145.11613942  .00002265  00000+0  16094-3 0  9991","line2":"2 65665  97.4475 189.0587 0002120 104.5467 255.5995 15.05655516 38545","mean_motion":15.05655516,"eccentricity":0.000212,"inclination_deg":97.4475,"raan_deg":189.0587,"arg_perigee_deg":104.5467,"mean_anomaly_deg":255.5995,"bstar":0.00016094,"rev_number":3854,"period_min":95.639406537398,"perigee_km":548.02557648596,"apogee_km":550.9628921293,"semimajor_km":6927.6312343076,"source":"CELESTRAK","updated_at":"2026-05-25T13:38:20.890609Z"}}}